Location: Glion
(46.4330°N, 6.9246°E)
Time: 18:02:35
(UTC+00:00)

Ariane Rocket - Pass Details

Date: 03 March 2021
Orbit: 759 x 771 km, 98.7° (Epoch: 19 April)

Event Time Altitude Azimuth Distance (km) Brightness Sun altitude
Exits shadow 20:22:14 28° 230° (SW) 1,408 4.5 -31.2°
Maximum altitude 20:23:45 34° 264° (W) 1,258 4.4 -31.4°
Drops below altitude 10° 20:28:23 10° 328° (NNW) 2,322 6.1 -32.1°
Sets 20:30:55 0° 338° (NNW) 3,253 6.9 -32.5°
